OneWeb SL0538

operational
NORAD ID: 56047 Int'l Des: 2023-043 Owner: ONEWEBN Country: UK Constellation: oneweb
LEOCIRCULARPOLARONEWEB_TYPE

关于 OneWeb SL0538

正在加载描述...

实时位置

正在加载3D地球...

即将过境

高度历史

Altitude vs Time

uPlot chart will show altitude changes over time

两行轨道根数

1 56047U 23043B 25351.32752645 -.00000029 00000-0 -10969-3 0 9995
2 56047 87.9048 264.9865 0001549 64.0636 296.0655 13.16596122135046
Epoch: Dec 17, 2025 • Age: 8 hours

当前状态

高度 1202.2 km
速度 7.26 km/s
星下点 34.46°N, 118.56°E
发射日期 Mar 26, 2023
运行时间 2.7 years
类型 internet

技术详情

分类 Payload
质量 148.00 kg
干质量 140.00 kg
总质量 148.00 kg
长度 1.30 m
直径 1.00 m
跨度 5.00 m
形状 Trapezoid+2 pan
制造商 ONEWUS
平台类型 ARROW
阶段状态 In Orbit
所有者/国家 ONEWEBN/UK

大型星座

Loading constellations...